STARLINK-36853, 68097

Orbit data source: Space-Track

STARLINK-36853, 68097 is a payload satellite owned by SpaceX/Seattle (US) in LEO that was launched on Wed, 04 Mar 2026 UTC via an FALCON 9 launch vehicle from the Air Force Eastern Test Range (AFETR). Payload-class satellites include a variety of spacecraft equipped with specific instruments for various scientific and technological missions. These include communications satellites like Starlink; space stations such as the ISS; scientific satellites like the Hubble; Earth observation satellites from companies like Planet Labs, Umbra, and HawkEye 360; GPS; miniature CubeSats for education and research; and military/defense satellites.

Loading next visibility...
Identifier
68097, 2026-042AE
Orbit
LEO
Country
Flag of USUS
Related business
Manufacturer
SpaceX/Seattle
Mission
Operational Commercial Communications
Bus & Motor
STARLINK V2MO, Unknown motor
Mass
575 kg wet, ~530 kg dry
Launch date (UTC)
2026-03-04 (4 months ago)
Launch vehicle
FALCON 9
Launch site
Air Force Eastern Test Range (AFETR)
Object type
Payload
Rocket body
Debris
Shape & HBR
Box + 2 Pan, 17.7 m
Radar Cross Section
36.964 m², Large (>1 m²)

Expand to show TLE details & history
Last TLE update: 10 hours ago

TLE from 10 hours ago
0 STARLINK-36853
1 68097U 26042AE  26171.42897000  .00020755  00000-0  62356-3 0  9995
2 68097  53.1589  60.1928 0001059 104.0453 256.0668 15.34406769 18042
Epoch: 2026-06-20T10:17Z
TLE epoch observation values (Epoch: 2026-06-20T10:17:43.008Z)
Latitude
0.00001°
Longitude
-2.88012°
Altitude
463.759 km
Speed
7.636 km/s
True Right ascension
04h 00m 46s
True Declination
0° 00' 00"
Sunlit
Object was in daylight at epoch
Visualization orbit readout
Latitude
Unknown
Longitude
Unknown
Altitude
Unknown
Speed
Unknown
Apparent Right ascension
Unknown
Apparent Declination
Unknown
Sunlit
N/A
Visualization observer readout
Local Sidereal Time
07:18:49
Azimuth
Unknown
Elevation
Unknown
Doppler factor
Unknown
Orbital elements
Apogee altitude
463.665 km
Perigee altitude
462.216 km
Semi-major axis
6,841.077 km
Eccentricity
0.00011
Inclination
53.1589°
RAAN
60.1928°
Arg. of periapsis
104.0453°
True anomaly
256.05502°
Mean anomaly
256.0668°
Eccentric anomaly
256.06091°
Mean motion
3.8358 °/min
Orbital period
93.85 mins
BSTAR
0.00062356
Loading maneuver chart data...
Computing Atmospheric mass density...
Loading historical data...
Loading historical data...
Loading historical data...
Loading historical data...
Loading historical data...
Loading historical data...
Loading historical data...

Documentation

Showing up to 5 results
|